This is the latest recevied weather packets stored in our database for station/object G1SCQ. If no packets are shown the sender has not sent any weather packets the latest 10 day(s).
| Time | Temp. | Humidity | Pressure | Rain* | Wind** | Luminosity | Snow |
|---|---|---|---|---|---|---|---|
| 1777833905 | 12.22° C | 93% | 1009.3 hPa | 0 mm | - | 19 W/m² | - |
| 1777833366 | 12.22° C | 92% | 1008.9 hPa | 0 mm | - | 26 W/m² | - |
| 1777832825 | 13.33° C | 90% | 1008.9 hPa | 0 mm | - | 38 W/m² | - |
| 1777832286 | 13.89° C | 88% | 1008.9 hPa | 0 mm | - | 59 W/m² | - |
| 1777831746 | 14.44° C | 88% | 1008.8 hPa | 0 mm | - | 80 W/m² | - |
| 1777831205 | 14.44° C | 87% | 1008.7 hPa | 0 mm | - | 25 W/m² | - |
| 1777830846 | 14.44° C | 86% | 1008.7 hPa | 0 mm | - | 32 W/m² | - |
| 1777830305 | 14.44° C | 85% | 1008.7 hPa | 0 mm | - | 23 W/m² | - |
| 1777829765 | 14.44° C | 85% | 1008.6 hPa | 0 mm | - | 21 W/m² | - |
| 1777829225 | 15° C | 84% | 1008.5 hPa | 0 mm | - | 33 W/m² | - |
| 1777828685 | 15.56° C | 83% | 1008.5 hPa | 0 mm | - | 61 W/m² | - |
| 1777828145 | 15.56° C | 80% | 1008.4 hPa | 0 mm | - | 92 W/m² | - |
| 1777827605 | 15.56° C | 80% | 1008.4 hPa | 0 mm | - | 95 W/m² | - |
| 1777827245 | 15.56° C | 80% | 1008.5 hPa | 0 mm | - | 86 W/m² | - |
| 1777826705 | 16.11° C | 79% | 1008.4 hPa | 0 mm | - | 109 W/m² | - |
| 1777826165 | 16.11° C | 79% | 1008.5 hPa | 0 mm | - | 151 W/m² | - |
| 1777825625 | 16.11° C | 78% | 1008.4 hPa | 0 mm | - | 155 W/m² | - |
| 1777825085 | 16.11° C | 77% | 1008.3 hPa | 0 mm | - | 129 W/m² | - |
| 1777824545 | 17.22° C | 75% | 1008.2 hPa | 0 mm | - | 253 W/m² | - |
| 1777824005 | 16.67° C | 75% | 1008.2 hPa | 0 mm | - | 420 W/m² | - |
| 1777823645 | 16.11° C | 76% | 1008.5 hPa | 0 mm | - | 280 W/m² | - |
| 1777823105 | 16.11° C | 77% | 1008.3 hPa | 0 mm | - | 162 W/m² | - |
| 1777822565 | 16.11° C | 75% | 1008.4 hPa | 0 mm | - | 233 W/m² | - |
| 1777822025 | 16.11° C | 75% | 1008.3 hPa | 0 mm | - | 147 W/m² | - |
| 1777821485 | 16.11° C | 76% | 1008.4 hPa | 0 mm | - | 135 W/m² | - |
* Rain latest hour (hover to see other rain measurements)
** Current wind speed in m/s (hover to see current wind gust speed)